Location: Bay Shore Mobile Home Park
(38.5762°N, 75.0841°W)
Time: 04:53:02
(UTC+00:00)

Hubble Space Telescope - Pass Details

Date: 29 January 2026
Orbit: 478 x 480 km, 28.5° (Epoch: 8 February)

Event Time Altitude Azimuth Distance (km) Brightness Sun altitude
Rises 23:54:26 0° 249° (WSW) 2,513 5.7 -18.8°
Reaches altitude 10° 23:57:25 10° 224° (SW) 1,635 4.0 -19.4°
Maximum altitude 23:59:30 14° 190° (S) 1,385 3.0 -19.8°
Enters shadow 00:01:01 12° 164° (SSE) 1,521 3.0 -20.1°
